Location: Newark
(52.3500°N, 175.9667°E)
Time: 23:04:13
(UTC+00:00)

Vanguard 1 - Pass Details

Date: 24 April 2021
Orbit: 649 x 3834 km, 34.2° (Epoch: 04 May)

Event Time Altitude Azimuth Distance (km) Brightness Sun altitude
Rises 02:19:44 0° 236° (SW) 5,425 14.6 43.3°
Reaches altitude 10° 02:23:01 10° 228° (SW) 4,797 14.7 42.9°
Maximum altitude 02:36:23 41° 165° (SSE) 4,036 13.9 41.4°
Drops below altitude 10° 02:56:01 10° 106° (ESE) 6,915 14.2 39.1°
Sets 03:02:02 0° 101° (E) 7,970 14.4 38.3°
